GPS IIR-14(M)

operational
NORAD ID: 28874 Int'l Des: 2005-038 Owner: AFSMC Country: US Constellation: GPS
MEOGNSS

About GPS IIR-14(M)

Description loading...

Live Position

Loading 3D Globe...

Upcoming Passes

Altitude History

Altitude vs Time

uPlot chart will show altitude changes over time

Two-Line Element Set

1 28874U 05038A 25336.67531713 -.00000043 00000-0 00000+0 0 9994
2 28874 55.0411 281.1063 0132820 293.4087 250.3584 2.00548806147896
Epoch: Dec 2, 2025 • Age: 62 hours

Current Status

Altitude 19910.3 km
Velocity 3.92 km/s
Sub-Earth Point -53.66°S, 0.44°W
Launch Date Sep 26, 2005
Age 20.1 years
Type navigation

Technical Details

Classification Payload
Mass 1077.00 kg
Dry Mass 910.00 kg
Total Mass 2032.00 kg
Length 1.50 m
Diameter 1.90 m
Span 19.30 m
Shape Box + 2 Pan
Manufacturer LMVF
Bus Type Series 4000
Phase Status In Orbit
Owner/State AFSMC/US

Large Constellations

Loading constellations...